29.03.2024;00:57;2,81
29.03.2024;00:42;2,80
29.03.2024;00:27;2,80
29.03.2024;00:12;2,80
28.03.2024;23:57;2,80
28.03.2024;23:42;2,80
28.03.2024;23:27;2,76
28.03.2024;23:12;2,76
28.03.2024;22:57;2,80
28.03.2024;22:42;2,76
28.03.2024;22:27;2,76
28.03.2024;22:12;2,76
28.03.2024;21:57;2,76
28.03.2024;21:42;2,75
28.03.2024;21:12;2,75
28.03.2024;20:57;2,75
28.03.2024;20:42;2,75
28.03.2024;20:27;2,75
28.03.2024;20:12;2,75
28.03.2024;19:57;2,75
28.03.2024;19:42;2,75
28.03.2024;19:27;2,75
28.03.2024;19:12;2,75
28.03.2024;18:57;2,75
28.03.2024;18:42;2,75
28.03.2024;18:27;2,75
28.03.2024;18:12;2,75
28.03.2024;17:57;2,75
28.03.2024;17:42;2,73
28.03.2024;17:27;2,73
28.03.2024;17:12;2,73
28.03.2024;16:57;2,73
28.03.2024;16:42;2,73
28.03.2024;16:27;2,73
28.03.2024;16:12;2,73
28.03.2024;15:57;2,73
28.03.2024;15:42;2,73
28.03.2024;15:27;2,73
28.03.2024;15:12;2,73
28.03.2024;14:57;2,72
28.03.2024;14:42;2,73
28.03.2024;14:27;2,73
28.03.2024;14:12;2,73
28.03.2024;13:57;2,73
28.03.2024;13:27;2,74
28.03.2024;13:12;2,74
28.03.2024;12:42;2,74
28.03.2024;12:27;2,74
28.03.2024;12:12;2,74
28.03.2024;11:57;2,76
28.03.2024;11:42;2,77
28.03.2024;11:27;2,80
28.03.2024;11:12;2,81
28.03.2024;10:27;2,81
28.03.2024;10:12;2,82
28.03.2024;09:57;2,82
28.03.2024;09:42;2,82
28.03.2024;09:12;2,82
28.03.2024;08:42;2,83
28.03.2024;08:27;2,83
28.03.2024;07:57;2,82
28.03.2024;07:42;2,83
28.03.2024;07:27;2,83
28.03.2024;07:12;2,83
28.03.2024;06:57;2,83
28.03.2024;06:42;2,83
28.03.2024;06:12;2,82
28.03.2024;05:27;2,82
28.03.2024;05:12;2,82
28.03.2024;04:57;2,82
28.03.2024;04:42;2,82
28.03.2024;04:27;2,82
28.03.2024;04:12;2,82
28.03.2024;03:42;2,82
28.03.2024;03:27;2,82
28.03.2024;03:12;2,82
28.03.2024;02:42;2,81
28.03.2024;02:27;2,82
28.03.2024;02:12;2,82
28.03.2024;01:57;2,81
28.03.2024;01:42;2,81
28.03.2024;01:27;2,81
28.03.2024;01:12;2,81
28.03.2024;00:57;2,81
28.03.2024;00:42;2,81
28.03.2024;00:27;2,81
28.03.2024;00:12;2,81
27.03.2024;23:57;2,81
27.03.2024;22:57;2,81
27.03.2024;22:42;2,81
27.03.2024;22:12;2,81
27.03.2024;21:57;2,81
27.03.2024;21:42;2,81
27.03.2024;21:12;2,81
27.03.2024;20:57;2,81
27.03.2024;20:42;2,81
27.03.2024;20:12;2,81
27.03.2024;19:57;2,81
27.03.2024;18:57;2,81
27.03.2024;18:42;2,81
27.03.2024;18:27;2,81
27.03.2024;18:12;2,81
27.03.2024;17:57;2,81
27.03.2024;17:12;2,81
27.03.2024;16:42;2,81
27.03.2024;16:27;2,81
27.03.2024;16:12;2,81
27.03.2024;15:27;2,81
27.03.2024;15:12;2,81
27.03.2024;14:57;2,82
27.03.2024;14:42;2,82
27.03.2024;14:12;2,82
27.03.2024;13:57;2,82
27.03.2024;13:42;2,82
27.03.2024;12:27;2,83
27.03.2024;11:57;2,83
27.03.2024;11:42;2,83
27.03.2024;11:12;2,83
27.03.2024;10:42;2,83
27.03.2024;10:27;2,83
27.03.2024;10:12;2,83
27.03.2024;09:42;2,83
27.03.2024;09:27;2,83
27.03.2024;09:12;2,83
27.03.2024;08:42;2,83
27.03.2024;08:27;2,83
27.03.2024;08:12;2,83
27.03.2024;07:57;2,84
27.03.2024;07:42;2,83
27.03.2024;07:27;2,83
27.03.2024;07:12;2,84
27.03.2024;06:57;2,83
27.03.2024;06:42;2,84
27.03.2024;06:27;2,84
27.03.2024;06:12;2,83
27.03.2024;05:57;2,83
27.03.2024;05:42;2,83
27.03.2024;05:27;2,83
27.03.2024;04:57;2,83
27.03.2024;04:42;2,83
27.03.2024;04:27;2,83
27.03.2024;04:12;2,83
27.03.2024;03:57;2,83
27.03.2024;03:12;2,83
27.03.2024;02:27;2,83
27.03.2024;01:57;2,83
27.03.2024;01:42;2,83
27.03.2024;01:27;2,83
27.03.2024;01:12;2,83
27.03.2024;00:57;2,82
27.03.2024;00:42;2,82
27.03.2024;00:27;2,82
26.03.2024;23:42;2,82
26.03.2024;23:12;2,82
26.03.2024;22:57;2,82
26.03.2024;22:27;2,81
26.03.2024;22:12;2,81
26.03.2024;21:57;2,81
26.03.2024;21:42;2,81
26.03.2024;21:27;2,81
26.03.2024;21:13;2,81
26.03.2024;20:58;2,81
26.03.2024;20:43;2,81
26.03.2024;20:28;2,81
26.03.2024;20:13;2,81
26.03.2024;19:58;2,81
26.03.2024;19:43;2,81
26.03.2024;19:28;2,81
26.03.2024;19:13;2,81
26.03.2024;18:58;2,81
26.03.2024;18:43;2,81
26.03.2024;18:13;2,81
26.03.2024;17:58;2,81
26.03.2024;17:43;2,81
26.03.2024;17:28;2,80
26.03.2024;16:43;2,80
26.03.2024;16:28;2,81
26.03.2024;15:13;2,81
26.03.2024;14:43;2,81
26.03.2024;14:28;2,81
26.03.2024;14:13;2,81
26.03.2024;13:43;2,81
26.03.2024;13:28;2,81
26.03.2024;12:13;2,81
26.03.2024;11:43;2,81
26.03.2024;11:13;2,81
26.03.2024;10:58;2,81
26.03.2024;10:43;2,81
26.03.2024;10:28;2,81
26.03.2024;09:43;2,81
26.03.2024;09:13;2,81
26.03.2024;08:58;2,81
26.03.2024;07:58;2,81
26.03.2024;07:43;2,81
26.03.2024;07:28;2,81
26.03.2024;06:58;2,81
26.03.2024;06:43;2,81
26.03.2024;06:28;2,81
26.03.2024;05:58;2,81
26.03.2024;05:28;2,81
26.03.2024;05:13;2,81
26.03.2024;04:58;2,81
26.03.2024;04:28;2,81
26.03.2024;04:13;2,81
26.03.2024;03:58;2,81
26.03.2024;03:43;2,81
26.03.2024;03:28;2,81
26.03.2024;03:13;2,80
26.03.2024;02:58;2,81
26.03.2024;02:43;2,81
26.03.2024;02:28;2,81
26.03.2024;02:13;2,81
26.03.2024;01:58;2,80
26.03.2024;01:43;2,80
26.03.2024;01:28;2,81
26.03.2024;01:13;2,81
26.03.2024;00:58;2,80
26.03.2024;00:43;2,81
26.03.2024;00:28;2,81
26.03.2024;00:13;2,81
25.03.2024;23:58;2,81
25.03.2024;23:43;2,81
25.03.2024;23:28;2,81
25.03.2024;23:13;2,81
25.03.2024;22:58;2,81
25.03.2024;22:43;2,81
25.03.2024;22:28;2,81
25.03.2024;22:13;2,81
25.03.2024;21:58;2,81
25.03.2024;21:43;2,75
25.03.2024;21:28;2,75
25.03.2024;21:13;2,75
25.03.2024;20:58;2,75
25.03.2024;20:43;2,75
25.03.2024;20:28;2,75
25.03.2024;19:58;2,75
25.03.2024;19:43;2,75
25.03.2024;19:28;2,75
25.03.2024;18:58;2,74
25.03.2024;18:43;2,74
25.03.2024;18:28;2,75
25.03.2024;18:13;2,74
25.03.2024;17:58;2,74
25.03.2024;17:43;2,74
25.03.2024;17:28;2,74
25.03.2024;17:13;2,75
25.03.2024;16:58;2,74
25.03.2024;16:43;2,74
25.03.2024;16:28;2,74
25.03.2024;16:13;2,74
25.03.2024;15:58;2,74
25.03.2024;15:43;2,74
25.03.2024;15:28;2,74
25.03.2024;15:13;2,74
25.03.2024;14:58;2,74
25.03.2024;14:43;2,74
25.03.2024;14:28;2,75
25.03.2024;14:13;2,75
25.03.2024;13:58;2,74
25.03.2024;13:43;2,75
25.03.2024;13:28;2,74
25.03.2024;13:13;2,74
25.03.2024;12:28;2,75
25.03.2024;12:13;2,75
25.03.2024;11:58;2,75
25.03.2024;11:43;2,74
25.03.2024;11:28;2,74
25.03.2024;10:58;2,74
25.03.2024;10:43;2,74
25.03.2024;10:28;2,74
25.03.2024;10:13;2,75
25.03.2024;09:58;2,75
25.03.2024;09:28;2,75
25.03.2024;09:13;2,75
25.03.2024;08:58;2,75
25.03.2024;08:28;2,75
25.03.2024;08:13;2,75
25.03.2024;07:28;2,75
25.03.2024;07:13;2,75
25.03.2024;06:58;2,75
25.03.2024;06:43;2,75
25.03.2024;06:28;2,74
25.03.2024;06:13;2,75
25.03.2024;05:58;2,75
25.03.2024;05:43;2,74
25.03.2024;05:28;2,75
25.03.2024;05:13;2,75
25.03.2024;04:58;2,75
25.03.2024;04:43;2,74
25.03.2024;04:28;2,74
25.03.2024;04:13;2,74
25.03.2024;03:58;2,74
25.03.2024;03:43;2,74
25.03.2024;03:28;2,74
25.03.2024;03:13;2,74
25.03.2024;02:58;2,74
25.03.2024;02:43;2,74
25.03.2024;02:28;2,74
25.03.2024;01:58;2,74
25.03.2024;01:43;2,74
25.03.2024;01:13;2,74
25.03.2024;00:58;2,74
25.03.2024;00:43;2,74
25.03.2024;00:13;2,73
24.03.2024;23:58;2,74
24.03.2024;23:43;2,74
24.03.2024;23:13;2,73
24.03.2024;22:58;2,73
24.03.2024;22:13;2,73
24.03.2024;21:58;2,73
24.03.2024;21:43;2,73
24.03.2024;21:13;2,73
24.03.2024;20:58;2,73
24.03.2024;20:43;2,73
24.03.2024;20:28;2,73
24.03.2024;20:13;2,73
24.03.2024;19:58;2,73
24.03.2024;19:43;2,73
24.03.2024;19:28;2,73
24.03.2024;18:58;2,73
24.03.2024;18:43;2,73
24.03.2024;18:28;2,73
24.03.2024;18:13;2,73
24.03.2024;17:58;2,73
24.03.2024;17:43;2,73
24.03.2024;17:28;2,73
24.03.2024;17:13;2,73
24.03.2024;16:58;2,73
24.03.2024;16:43;2,73
24.03.2024;16:13;2,73
24.03.2024;15:58;2,73
24.03.2024;15:43;2,73
24.03.2024;15:13;2,74
24.03.2024;14:58;2,73
24.03.2024;14:43;2,74
24.03.2024;14:28;2,74
24.03.2024;14:13;2,74
24.03.2024;13:28;2,74
24.03.2024;13:13;2,74
24.03.2024;12:58;2,74
24.03.2024;12:43;2,74
24.03.2024;12:28;2,74
24.03.2024;12:13;2,74
24.03.2024;11:43;2,74
24.03.2024;11:28;2,74
24.03.2024;10:58;2,74
24.03.2024;10:43;2,74
24.03.2024;10:28;2,74
24.03.2024;10:13;2,74
24.03.2024;09:58;2,74
24.03.2024;09:43;2,75
24.03.2024;09:28;2,74
24.03.2024;09:13;2,75
24.03.2024;08:58;2,74
24.03.2024;08:43;2,75
24.03.2024;08:28;2,74
24.03.2024;08:13;2,74
24.03.2024;07:58;2,74
24.03.2024;07:43;2,74
24.03.2024;07:28;2,74
24.03.2024;07:13;2,74
24.03.2024;06:58;2,75
24.03.2024;06:43;2,75
24.03.2024;06:13;2,74
24.03.2024;05:58;2,74
24.03.2024;05:43;2,74
24.03.2024;05:28;2,74
24.03.2024;05:13;2,74
24.03.2024;04:58;2,74
24.03.2024;04:43;2,74
24.03.2024;04:28;2,74
24.03.2024;04:13;2,74
24.03.2024;03:58;2,74
24.03.2024;03:43;2,74
24.03.2024;03:28;2,74
24.03.2024;03:13;2,74
24.03.2024;02:58;2,74
24.03.2024;02:43;2,74
24.03.2024;02:28;2,74
24.03.2024;02:13;2,74
24.03.2024;01:58;2,73
24.03.2024;01:43;2,73
24.03.2024;01:28;2,74
24.03.2024;01:13;2,74
24.03.2024;00:58;2,74
24.03.2024;00:43;2,74
24.03.2024;00:28;2,73
24.03.2024;00:13;2,73
23.03.2024;23:58;2,74
23.03.2024;23:43;2,74
23.03.2024;23:28;2,74
23.03.2024;23:13;2,74
23.03.2024;22:58;2,74
23.03.2024;22:28;2,73
23.03.2024;22:13;2,73
23.03.2024;21:58;2,73
23.03.2024;21:28;2,73
23.03.2024;20:58;2,73
23.03.2024;20:43;2,73
23.03.2024;20:13;2,73
23.03.2024;19:28;2,73
23.03.2024;19:13;2,72
23.03.2024;18:58;2,72
23.03.2024;18:43;2,72
23.03.2024;18:28;2,72
23.03.2024;18:13;2,72
23.03.2024;17:58;2,72
23.03.2024;17:43;2,72
23.03.2024;17:28;2,72
23.03.2024;17:13;2,72
23.03.2024;16:58;2,72
23.03.2024;16:43;2,72
23.03.2024;16:13;2,72
23.03.2024;15:58;2,73
23.03.2024;15:43;2,73
23.03.2024;15:13;2,73
23.03.2024;14:58;2,73
23.03.2024;14:43;2,73
23.03.2024;14:28;2,73
23.03.2024;14:13;2,74
23.03.2024;13:58;2,74
23.03.2024;13:43;2,74
23.03.2024;13:28;2,75
23.03.2024;12:58;2,75
23.03.2024;12:43;2,75
23.03.2024;12:28;2,75
23.03.2024;12:14;2,75
23.03.2024;11:59;2,75
23.03.2024;11:44;2,75
23.03.2024;11:29;2,75
23.03.2024;11:14;2,75
23.03.2024;10:59;2,75
23.03.2024;10:44;2,75
23.03.2024;10:29;2,75
23.03.2024;10:14;2,75
23.03.2024;09:59;2,75
23.03.2024;09:44;2,75
23.03.2024;09:29;2,75
23.03.2024;09:14;2,75
23.03.2024;08:59;2,75
23.03.2024;08:29;2,75
23.03.2024;08:14;2,75
23.03.2024;07:59;2,75
23.03.2024;07:44;2,75
23.03.2024;07:29;2,75
23.03.2024;07:14;2,75
23.03.2024;06:59;2,75
23.03.2024;06:44;2,75
23.03.2024;06:29;2,75
23.03.2024;06:14;2,75
23.03.2024;05:44;2,75
23.03.2024;05:29;2,75
23.03.2024;05:14;2,75
23.03.2024;04:59;2,75
23.03.2024;04:44;2,75
23.03.2024;04:29;2,75
23.03.2024;04:14;2,75
23.03.2024;03:59;2,75
23.03.2024;03:44;2,75
23.03.2024;03:29;2,75
23.03.2024;03:14;2,75
23.03.2024;02:59;2,75
23.03.2024;02:44;2,75
23.03.2024;02:14;2,75
23.03.2024;01:59;2,75
23.03.2024;01:44;2,75
23.03.2024;01:14;2,75
23.03.2024;00:44;2,74
23.03.2024;00:29;2,74
23.03.2024;00:14;2,75
22.03.2024;23:59;2,75
22.03.2024;23:44;2,75
22.03.2024;23:29;2,75
22.03.2024;23:14;2,74
22.03.2024;22:59;2,74
22.03.2024;22:44;2,74
22.03.2024;22:29;2,75
22.03.2024;22:14;2,74
22.03.2024;21:59;2,74
22.03.2024;21:44;2,74
22.03.2024;21:29;2,74
22.03.2024;21:14;2,74
22.03.2024;20:44;2,74
22.03.2024;20:29;2,74
22.03.2024;20:14;2,74
22.03.2024;19:59;2,74
22.03.2024;19:44;2,74
22.03.2024;19:29;2,74
22.03.2024;19:14;2,74
22.03.2024;18:59;2,74
22.03.2024;18:44;2,75
22.03.2024;18:29;2,74
22.03.2024;18:14;2,74
22.03.2024;17:59;2,75
22.03.2024;17:44;2,74
22.03.2024;17:14;2,74
22.03.2024;16:59;2,74
22.03.2024;16:44;2,75
22.03.2024;16:29;2,74
22.03.2024;16:14;2,74
22.03.2024;15:59;2,75
22.03.2024;15:44;2,74
22.03.2024;15:29;2,74
22.03.2024;15:14;2,75
22.03.2024;14:59;2,74
22.03.2024;14:44;2,74
22.03.2024;14:29;2,74
22.03.2024;14:14;2,74
22.03.2024;13:59;2,74
22.03.2024;13:44;2,75
22.03.2024;13:29;2,74
22.03.2024;13:14;2,74
22.03.2024;12:59;2,74
22.03.2024;12:44;2,74
22.03.2024;12:29;2,74
22.03.2024;12:14;2,74
22.03.2024;11:59;2,74
22.03.2024;11:44;2,75
22.03.2024;11:29;2,74
22.03.2024;11:14;2,74
22.03.2024;10:59;2,74
22.03.2024;10:44;2,74
22.03.2024;10:29;2,74
22.03.2024;10:14;2,75
22.03.2024;09:59;2,74
22.03.2024;09:44;2,74
22.03.2024;09:29;2,74
22.03.2024;09:14;2,74
22.03.2024;08:44;2,74
22.03.2024;08:29;2,75
22.03.2024;08:14;2,74
22.03.2024;07:59;2,75
22.03.2024;07:44;2,74
22.03.2024;07:29;2,74
22.03.2024;07:14;2,74
22.03.2024;06:59;2,74
22.03.2024;06:44;2,74
22.03.2024;06:29;2,74
22.03.2024;06:14;2,74
22.03.2024;05:59;2,74
22.03.2024;05:44;2,74
22.03.2024;05:29;2,74
22.03.2024;05:14;2,74
22.03.2024;04:59;2,74
22.03.2024;04:44;2,74
22.03.2024;04:29;2,74
22.03.2024;04:14;2,74
22.03.2024;03:59;2,74
22.03.2024;03:44;2,74
22.03.2024;03:29;2,74
22.03.2024;03:14;2,74
22.03.2024;02:59;2,74
22.03.2024;02:44;2,74
22.03.2024;01:59;2,74
22.03.2024;01:44;2,74
22.03.2024;01:29;2,73
22.03.2024;01:14;2,73
22.03.2024;00:59;2,73
22.03.2024;00:44;2,73
22.03.2024;00:29;2,73
22.03.2024;00:14;2,73
21.03.2024;23:59;2,73
21.03.2024;23:44;2,73
21.03.2024;23:29;2,73
21.03.2024;23:14;2,73
21.03.2024;22:59;2,73
21.03.2024;22:44;2,73
21.03.2024;22:29;2,73
21.03.2024;22:14;2,73
21.03.2024;21:59;2,73
21.03.2024;21:44;2,73
21.03.2024;21:29;2,73
21.03.2024;21:14;2,73
21.03.2024;20:44;2,73
21.03.2024;20:29;2,73
21.03.2024;20:14;2,73
21.03.2024;19:59;2,73
21.03.2024;19:44;2,73
21.03.2024;19:14;2,73
21.03.2024;18:59;2,73
21.03.2024;18:44;2,73
21.03.2024;18:29;2,73
21.03.2024;18:14;2,73
21.03.2024;17:59;2,73
21.03.2024;17:44;2,73
21.03.2024;17:29;2,73
21.03.2024;17:14;2,73
21.03.2024;16:59;2,73
21.03.2024;16:44;2,73
21.03.2024;16:29;2,73
21.03.2024;16:14;2,73
21.03.2024;15:59;2,73
21.03.2024;15:29;2,73
21.03.2024;14:59;2,73
21.03.2024;14:44;2,73
21.03.2024;14:29;2,73
21.03.2024;14:14;2,73
21.03.2024;13:59;2,73
21.03.2024;13:44;2,73
21.03.2024;13:29;2,73
21.03.2024;13:14;2,73
21.03.2024;12:59;2,73
21.03.2024;12:44;2,73
21.03.2024;12:29;2,73
21.03.2024;12:14;2,73
21.03.2024;11:59;2,73
21.03.2024;11:44;2,73
21.03.2024;10:59;2,74
21.03.2024;10:44;2,74
21.03.2024;10:29;2,74
21.03.2024;10:14;2,74
21.03.2024;09:59;2,74
21.03.2024;09:44;2,74
21.03.2024;09:29;2,74
21.03.2024;08:59;2,74
21.03.2024;08:44;2,74
21.03.2024;08:29;2,74
21.03.2024;08:14;2,74
21.03.2024;07:59;2,74
21.03.2024;07:44;2,74
21.03.2024;07:29;2,74
21.03.2024;07:14;2,74
21.03.2024;06:59;2,74
21.03.2024;06:44;2,74
21.03.2024;06:29;2,74
21.03.2024;05:59;2,74
21.03.2024;05:44;2,74
21.03.2024;05:29;2,74
21.03.2024;04:59;2,74
21.03.2024;04:44;2,74
21.03.2024;04:29;2,74
21.03.2024;04:14;2,74
21.03.2024;03:59;2,74
21.03.2024;03:44;2,74
21.03.2024;03:29;2,74
21.03.2024;03:14;2,74
21.03.2024;02:59;2,74
21.03.2024;02:44;2,74
21.03.2024;02:29;2,74
21.03.2024;02:14;2,74
21.03.2024;01:59;2,74
21.03.2024;01:44;2,74
21.03.2024;01:29;2,74
21.03.2024;01:14;2,74
21.03.2024;00:59;2,74
21.03.2024;00:44;2,74
21.03.2024;00:29;2,74
21.03.2024;00:14;2,74
20.03.2024;23:44;2,74
20.03.2024;23:29;2,74
20.03.2024;23:14;2,74
20.03.2024;22:59;2,74
20.03.2024;22:44;2,74
20.03.2024;22:29;2,74
20.03.2024;22:14;2,74
20.03.2024;21:59;2,74
20.03.2024;21:44;2,74
20.03.2024;21:29;2,73
20.03.2024;21:14;2,74
20.03.2024;20:59;2,74
20.03.2024;20:44;2,73
20.03.2024;20:29;2,73
20.03.2024;20:14;2,73
20.03.2024;19:59;2,73
20.03.2024;19:44;2,73
20.03.2024;19:29;2,73
20.03.2024;19:14;2,73
20.03.2024;18:59;2,73
20.03.2024;18:44;2,73
20.03.2024;18:29;2,73
20.03.2024;18:14;2,73
20.03.2024;17:59;2,73
20.03.2024;17:44;2,73
20.03.2024;17:29;2,73
20.03.2024;17:14;2,73
20.03.2024;16:59;2,73
20.03.2024;16:44;2,73
20.03.2024;16:14;2,73
20.03.2024;15:59;2,73
20.03.2024;15:29;2,73
20.03.2024;15:14;2,73
20.03.2024;14:44;2,73
20.03.2024;14:29;2,73
20.03.2024;13:59;2,73
20.03.2024;13:29;2,73
20.03.2024;12:59;2,73
20.03.2024;12:44;2,73
20.03.2024;12:29;2,73
20.03.2024;12:14;2,73
20.03.2024;11:59;2,73
20.03.2024;11:44;2,73
20.03.2024;11:29;2,73
20.03.2024;10:59;2,73
20.03.2024;10:44;2,73
20.03.2024;10:29;2,73
20.03.2024;10:14;2,74
20.03.2024;09:44;2,73
20.03.2024;09:29;2,73
20.03.2024;08:59;2,74
20.03.2024;08:44;2,74
20.03.2024;08:29;2,74
20.03.2024;08:14;2,74
20.03.2024;07:59;2,74
20.03.2024;07:29;2,74
20.03.2024;07:14;2,74
20.03.2024;06:59;2,74
20.03.2024;06:44;2,74
20.03.2024;06:29;2,74
20.03.2024;06:14;2,74
20.03.2024;05:59;2,74
20.03.2024;05:44;2,74
20.03.2024;05:29;2,74
20.03.2024;05:14;2,74
20.03.2024;04:59;2,74
20.03.2024;04:44;2,74
20.03.2024;04:29;2,74
20.03.2024;04:14;2,74
20.03.2024;03:59;2,74
20.03.2024;03:44;2,73
20.03.2024;03:30;2,73
20.03.2024;03:15;2,73
20.03.2024;03:00;2,73
20.03.2024;02:45;2,73
20.03.2024;02:30;2,73
20.03.2024;02:15;2,73
20.03.2024;02:00;2,73
20.03.2024;01:45;2,73
20.03.2024;01:30;2,73
20.03.2024;01:15;2,73
20.03.2024;01:00;2,73
20.03.2024;00:45;2,73
20.03.2024;00:30;2,73
20.03.2024;00:15;2,73
19.03.2024;23:45;2,73
19.03.2024;23:30;2,73
19.03.2024;23:15;2,73
19.03.2024;23:00;2,73
19.03.2024;22:45;2,73
19.03.2024;22:30;2,73
19.03.2024;22:15;2,73
19.03.2024;22:00;2,73
19.03.2024;21:45;2,73
19.03.2024;21:30;2,73
19.03.2024;21:15;2,73
19.03.2024;21:00;2,73
19.03.2024;20:45;2,72
19.03.2024;20:30;2,73
19.03.2024;20:15;2,73
19.03.2024;20:00;2,73
19.03.2024;19:45;2,72
19.03.2024;19:30;2,73
19.03.2024;19:15;2,73
19.03.2024;19:00;2,73
19.03.2024;18:45;2,73
19.03.2024;18:30;2,73
19.03.2024;18:15;2,72
19.03.2024;18:00;2,73
19.03.2024;17:45;2,73
19.03.2024;17:30;2,73
19.03.2024;17:15;2,73
19.03.2024;17:00;2,73
19.03.2024;16:45;2,73
19.03.2024;16:30;2,73
19.03.2024;16:15;2,73
19.03.2024;15:45;2,73
19.03.2024;15:30;2,73
19.03.2024;15:15;2,73
19.03.2024;15:00;2,73
19.03.2024;14:45;2,73
19.03.2024;14:30;2,73
19.03.2024;14:15;2,73
19.03.2024;14:00;2,74
19.03.2024;13:45;2,74
19.03.2024;13:30;2,74
19.03.2024;13:15;2,74
19.03.2024;13:00;2,74
19.03.2024;12:45;2,75
19.03.2024;12:30;2,75
19.03.2024;12:15;2,75
19.03.2024;12:00;2,75
19.03.2024;11:45;2,76
19.03.2024;11:30;2,76
19.03.2024;11:15;2,80
19.03.2024;10:45;2,80
19.03.2024;10:30;2,80
19.03.2024;10:15;2,80
19.03.2024;10:00;2,80
19.03.2024;09:30;2,81
19.03.2024;09:15;2,81
19.03.2024;09:00;2,81
19.03.2024;08:45;2,81
19.03.2024;08:15;2,81
19.03.2024;08:00;2,81
19.03.2024;07:15;2,81
19.03.2024;07:00;2,82
19.03.2024;06:45;2,82
19.03.2024;06:30;2,82
19.03.2024;06:15;2,82
19.03.2024;06:00;2,82
19.03.2024;05:45;2,82
19.03.2024;05:30;2,82
19.03.2024;05:15;2,82
19.03.2024;05:00;2,82
19.03.2024;04:45;2,82
19.03.2024;04:30;2,82
19.03.2024;04:15;2,82
19.03.2024;04:00;2,82
19.03.2024;03:45;2,82
19.03.2024;03:30;2,82
19.03.2024;03:15;2,82
19.03.2024;03:00;2,82
19.03.2024;02:45;2,82
19.03.2024;02:30;2,82
19.03.2024;02:15;2,81
19.03.2024;02:00;2,81
19.03.2024;01:45;2,81
19.03.2024;01:30;2,81
19.03.2024;01:15;2,81
19.03.2024;01:00;2,81
19.03.2024;00:45;2,81
19.03.2024;00:30;2,81
19.03.2024;00:15;2,81
19.03.2024;00:00;2,81
18.03.2024;23:45;2,80
18.03.2024;23:30;2,80
18.03.2024;23:15;2,80
18.03.2024;23:00;2,80
18.03.2024;22:45;2,80
18.03.2024;22:30;2,79
18.03.2024;22:15;2,76
18.03.2024;22:00;2,76
18.03.2024;21:45;2,75
18.03.2024;21:15;2,75
18.03.2024;21:00;2,75
18.03.2024;20:45;2,74
18.03.2024;20:30;2,74
18.03.2024;20:15;2,74
18.03.2024;19:45;2,74
18.03.2024;19:30;2,73
18.03.2024;19:15;2,73
18.03.2024;19:00;2,73
18.03.2024;18:45;2,73
18.03.2024;18:30;2,73
18.03.2024;18:00;2,71
18.03.2024;17:30;2,71
18.03.2024;17:00;2,72
18.03.2024;16:45;2,72
18.03.2024;16:30;2,72
18.03.2024;16:00;2,71
18.03.2024;15:30;2,71
18.03.2024;15:00;2,70
18.03.2024;14:45;2,71
18.03.2024;14:30;2,71
18.03.2024;14:15;2,71
18.03.2024;14:00;2,71
18.03.2024;13:45;2,71
18.03.2024;13:30;2,71
18.03.2024;13:15;2,71
18.03.2024;13:00;2,71
18.03.2024;12:45;2,72
18.03.2024;12:30;2,73
18.03.2024;12:15;2,74
18.03.2024;12:00;2,75
18.03.2024;11:45;2,75
18.03.2024;11:30;2,75
18.03.2024;11:15;2,75
18.03.2024;11:00;2,75
18.03.2024;10:45;2,75
18.03.2024;10:30;2,75
18.03.2024;10:15;2,75
18.03.2024;10:00;2,75
18.03.2024;09:45;2,76
18.03.2024;09:30;2,77
18.03.2024;09:15;2,80
18.03.2024;09:00;2,80
18.03.2024;08:45;2,81
18.03.2024;08:30;2,81
18.03.2024;08:15;2,81
18.03.2024;08:00;2,82
18.03.2024;07:45;2,82
18.03.2024;07:30;2,82
18.03.2024;07:15;2,82
18.03.2024;07:00;2,82
18.03.2024;06:45;2,82
18.03.2024;06:30;2,82
18.03.2024;06:15;2,82
18.03.2024;05:45;2,82
18.03.2024;05:30;2,82
18.03.2024;05:15;2,82
18.03.2024;05:00;2,82
18.03.2024;04:45;2,82
18.03.2024;04:15;2,82
18.03.2024;03:45;2,81
18.03.2024;03:30;2,81
18.03.2024;03:15;2,81
18.03.2024;03:00;2,81
18.03.2024;02:45;2,81
18.03.2024;02:30;2,81
18.03.2024;02:15;2,81
18.03.2024;02:00;2,81
18.03.2024;01:45;2,81
18.03.2024;01:30;2,81
18.03.2024;01:15;2,81
18.03.2024;01:00;2,81
18.03.2024;00:45;2,80
18.03.2024;00:30;2,80
18.03.2024;00:15;2,80
18.03.2024;00:00;2,80
17.03.2024;23:45;2,80
17.03.2024;23:30;2,80
17.03.2024;23:15;2,79
17.03.2024;23:00;2,79
17.03.2024;22:45;2,76
17.03.2024;22:30;2,75
17.03.2024;22:15;2,75
17.03.2024;21:45;2,75
17.03.2024;21:30;2,74
17.03.2024;21:15;2,74
17.03.2024;21:00;2,74
17.03.2024;20:45;2,74
17.03.2024;20:30;2,74
17.03.2024;20:15;2,74
17.03.2024;20:00;2,74
17.03.2024;19:45;2,73
17.03.2024;19:15;2,73
17.03.2024;19:00;2,73
17.03.2024;18:45;2,73
17.03.2024;18:30;2,73
17.03.2024;18:15;2,73
17.03.2024;18:00;2,73
17.03.2024;17:45;2,73
17.03.2024;17:30;2,73
17.03.2024;17:15;2,72
17.03.2024;17:00;2,72
17.03.2024;16:45;2,72
17.03.2024;16:30;2,72
17.03.2024;16:15;2,71
17.03.2024;16:00;2,71
17.03.2024;15:45;2,71
17.03.2024;15:30;2,71
17.03.2024;15:15;2,71
17.03.2024;15:00;2,71
17.03.2024;14:45;2,71
17.03.2024;14:30;2,71
17.03.2024;14:00;2,71
17.03.2024;13:45;2,71
17.03.2024;13:30;2,71
17.03.2024;13:15;2,71
17.03.2024;13:00;2,72
17.03.2024;12:45;2,72
17.03.2024;12:30;2,72
17.03.2024;12:15;2,73
17.03.2024;11:45;2,73
17.03.2024;11:30;2,73
17.03.2024;11:15;2,73
17.03.2024;11:00;2,73
17.03.2024;10:45;2,73
17.03.2024;10:30;2,73
17.03.2024;10:00;2,73
17.03.2024;09:45;2,73
17.03.2024;09:30;2,73
17.03.2024;09:15;2,73
17.03.2024;09:00;2,73
17.03.2024;08:45;2,73
17.03.2024;08:30;2,73
17.03.2024;08:00;2,73
17.03.2024;07:45;2,73
17.03.2024;07:30;2,73
17.03.2024;07:15;2,72
17.03.2024;07:00;2,72
17.03.2024;06:45;2,72
17.03.2024;06:30;2,72
17.03.2024;06:15;2,72
17.03.2024;06:00;2,71
17.03.2024;05:45;2,71
17.03.2024;05:30;2,71
17.03.2024;05:15;2,71
17.03.2024;05:00;2,71
17.03.2024;04:45;2,71
17.03.2024;04:30;2,71
17.03.2024;04:15;2,71
17.03.2024;04:00;2,71
17.03.2024;03:45;2,71
17.03.2024;03:30;2,71
17.03.2024;03:15;2,71
17.03.2024;02:45;2,70
17.03.2024;02:30;2,70
17.03.2024;02:15;2,70
17.03.2024;01:45;2,70
17.03.2024;01:30;2,70
17.03.2024;01:15;2,70
17.03.2024;01:00;2,70
17.03.2024;00:45;2,69
17.03.2024;00:30;2,70
17.03.2024;00:15;2,69
17.03.2024;00:00;2,69
16.03.2024;23:45;2,69
16.03.2024;23:30;2,69
16.03.2024;23:15;2,69
16.03.2024;23:00;2,69
16.03.2024;22:45;2,69
16.03.2024;22:30;2,69
16.03.2024;22:15;2,69
16.03.2024;22:00;2,69
16.03.2024;21:45;2,69
16.03.2024;21:15;2,69
16.03.2024;21:00;2,69
16.03.2024;20:45;2,69
16.03.2024;20:30;2,69
16.03.2024;20:15;2,69
16.03.2024;19:30;2,69
16.03.2024;19:16;2,68
16.03.2024;19:01;2,69
16.03.2024;18:45;2,69
16.03.2024;18:30;2,68
16.03.2024;18:00;2,68
16.03.2024;17:46;2,68
16.03.2024;17:31;2,68
16.03.2024;17:16;2,68
16.03.2024;17:01;2,68
16.03.2024;16:46;2,68
16.03.2024;16:31;2,68
16.03.2024;16:16;2,68
16.03.2024;15:46;2,68
16.03.2024;15:31;2,68
16.03.2024;15:16;2,68
16.03.2024;15:01;2,68
16.03.2024;14:16;2,68
16.03.2024;14:01;2,68
16.03.2024;13:46;2,68
16.03.2024;13:16;2,68
16.03.2024;13:01;2,68
16.03.2024;12:46;2,68
16.03.2024;12:31;2,68
16.03.2024;12:16;2,68
16.03.2024;12:01;2,68
16.03.2024;11:46;2,68
16.03.2024;11:31;2,68
16.03.2024;11:16;2,68
16.03.2024;11:01;2,68
16.03.2024;10:46;2,68
16.03.2024;10:31;2,68
16.03.2024;10:16;2,68